Hourly Data Report for July 15, 2004

SHERBROOKE A
QUEBEC

45°26'00.000" N
71°41'00.000" W
241.40 m
7028124
71610
YSC

Download Data

Hourly Data (July 2004)
Hourly Data Report for July 15, 2004
TIME
LST
Temp Definition
°C
Dew Point Definition
°C
Rel Hum Definition
%
Precip. Amount Definition
mm

Wind Dir Definition
10's deg

Wind Spd Definition
km/h
Visibility Definition
km
Stn Press Definition
kPa
Hmdx Definition


Wind Chill Definition


Weather Definition


00:00 17.7 14.8 83   7 9 15.0 97.45      
01:00 17.0 15.4 90   7 6 11.3 97.40     Rain
02:00 16.6 15.6 94   7 6 11.3 97.33     Drizzle
03:00 16.4 15.7 96   9 7 15.0 97.30      
04:00 16.3 15.6 96   7 7 15.0 97.26      
05:00 16.4 15.8 96   7 7 15.0 97.22      
06:00 16.7 16.0 96   6 7 15.0 97.21      
07:00 17.2 16.2 94   7 9 24.1 97.18     Cloudy
08:00 18.3 16.8 91   7 7 24.1 97.16     Rain Showers
09:00 18.5 16.3 87   12 9 24.1 97.19     Rain Showers
10:00 18.5 17.0 91   14 7 9.7 97.19     Rain Showers
11:00 17.6 16.8 95   12 4 4.8 97.18     Rain, Fog
12:00 18.1 17.1 94   8 7 19.3 97.14     Rain Showers
13:00 18.9 17.6 92   10 6 24.1 97.13     Cloudy
14:00 21.5 19.9 91   10 6 24.1 97.10 29   Mostly Cloudy
15:00 22.3 18.9 81   18 6 24.1 97.07 29   Rain Showers
16:00 23.3 17.2 69   16 9 24.1 97.03 29   Mainly Clear
17:00 22.4 16.8 71   18 7 15.0 97.04 28    
18:00 18.4 16.5 89   25 11 1.4 97.13     Heavy Rain
19:00 17.5 16.8 96     0 15.0 97.17     Rain
20:00 17.7 17.0 96   13 6 4.8 97.22     Rain
21:00 17.5 16.7 95   17 6 15.0 97.22      
22:00 15.7 15.3 97     0 2.1 97.25      
23:00 15.1 14.8 98     0 1.1 97.26      

Notes on Data Quality.

Legend

  • E = Estimated
  • M = Missing
  • NA = Not Available*
  • [empty] = Indicates an unobserved value
Date modified: